User: anonymous   Login
Location: Barcelona
(41.3830°N, 2.1830°E)
Time: 19:04:29
(UTC+02:00)
Language:

BUGSAT 1 - Orbit

View from above orbital plane
View from above orbital plane
View from above satellite
View from above satellite

Ground track
Ground track

The orbit data is extracted from the following two-line orbital elements,

1 40014U 14033E   19288.42102226  .00000560  00000-0  55942-4 0  9997
2 40014  98.0266 238.6925 0032326  29.5268 330.7809 14.95326568290241
Epoch (UTC): 15 October 2019 10:06:16
Eccentricity: 0.0032326
inclination: 98.0266°
perigee height: 559 km
apogee height: 604 km
right ascension of ascending node: 238.6925°
argument of perigee: 29.5268°
revolutions per day: 14.95326568
mean anomaly at epoch: 330.7809°
orbit number at epoch: 29024

The dashed part of the orbit path shows where the satellite is in the earth's shadow,  

DLR